Ana Sayfa
METAR-TAF:

METAR-TAF

Havaalanları :

Avenger Field

Sweetwater, Teksas, Amerika Birleşik Devletleri

Enlem: 32-28-02N, Boylam: 100-27-59W, yükseklik: 725 m

Güncel hava durumu gözlemi

Rapor saat 12:55 UTC de 30 dakika önce yapıldı.
Rüzgar güneydan 19 kt ve 31 kt'a kadar ani rüzgarlar
Sıcaklık 24°C
Nem 69%
Basınç 1011 hPa
Görüş mesafesi: 16.1 km

METAR: KSWW 161255Z AUTO 18019G31KT 10SM 24/18 A2986 RMK AO2 LTG DSNT S T02380183

Saat: 08:25 (13:25 UTC)


TAF: eksik

4.000'den fazla havaalanı için hava durumu gözlemleri ve tahminleri (METAR ve TAF raporları).

Kullanılabilir istasyonlar harita üzerinde sarı ve kırmızı noktalarla gösterilir.

İstasyonun adını görmek için fareyi noktanın üzerinde gezdirin.

Sonrasında hava gözlem ve tahminlerini görmek için tıklayın.

Haritayı değiştirmek için: yaklaştırmak için siyah artı işaretli yeşil düğmeye ve uzaklaştırmak için de eksi işaretli düğmeye hızla tıklayın; bitişik haritalar için yeşil okları kullanın.


METAR-TAF: